Weather History for Grand Canyon, AZ

Change the Weather History Date:

Saturday, November 3, 2012

  Actual Average Record
Temperature  
Mean Temperature 42 °F -  
Max Temperature 63 °F 53 °F 69 °F (1977)
Min Temperature 21 °F 23 °F 15 °F (2002)
Degree Days  
Heating Degree Days 23    
Moisture  
Dew Point 16 °F    
Average Humidity 42    
Maximum Humidity 60    
Minimum Humidity 20    
Precipitation  
Precipitation 0.00 in - - ()
Sea Level Pressure  
Sea Level Pressure 30.19 in    
Wind  
Wind Speed 2 mph (SE)    
Max Wind Speed 8 mph    
Max Gust Speed -    
Visibility 10 miles    
Events      
Averages and records for this station are not official NWS values.
T = Trace of Precipitation, MM = Missing Value Source: NWS Daily Summary

Daily Weather History Graph

Daily Weather History Graph

Search for Another Location

Airport:

Trip Planner

Search our weather history database for the weather conditions in past years. The results will help you decide how hot, cold, wet, or windy it might be!

Date:

Astronomy

Nov. 03, 2012 Rise Set
Actual Time 6:53 AM MST 5:30 PM MST
Civil Twilight 6:26 AM MST 5:56 PM MST
Nautical Twilight 5:56 AM MST 6:27 PM MST
Astronomical Twilight 5:26 AM MST 6:57 PM MST
Moon 9:17 PM MST (11/3) 10:57 AM MST (11/3)
Length of Visible Light 11h 30m
Length of Day
10h 36m
Waning Gibbous, 79% of the Moon is Illuminated
Nov 3
Waning Gibbous
Nov 6
Last Quarter
Nov 13
New
Nov 20
First Quarter
Nov 28
Full

Hourly Weather History & Observations

Time (MST) Temp. Windchill Dew Point Humidity Pressure Visibility Wind Dir Wind Speed Gust Speed Precip Events Conditions
12:54 AM 26.1 °F 21.9 °F 10.0 °F 51% 30.09 in 10.0 mi East 3.5 mph - N/A   Clear
1:54 AM 24.1 °F 19.7 °F 10.0 °F 55% 30.10 in 10.0 mi NE 3.5 mph - N/A   Clear
2:54 AM 23.0 °F - 10.0 °F 58% 30.11 in 10.0 mi Calm Calm - N/A   Clear
3:54 AM 21.9 °F - 10.0 °F 60% 30.12 in 10.0 mi Calm Calm - N/A   Clear
4:54 AM 23.0 °F - 10.9 °F 60% 30.14 in 10.0 mi Calm Calm - N/A   Clear
5:54 AM 21.9 °F - 10.0 °F 60% 30.23 in 10.0 mi Calm Calm - N/A   Clear
6:54 AM 21.9 °F - 10.0 °F 60% 30.28 in 10.0 mi Calm Calm - N/A   Clear
7:54 AM 28.9 °F 25.2 °F 12.9 °F 51% 30.27 in 10.0 mi ENE 3.5 mph - N/A   Clear
8:54 AM 50.0 °F - 16.0 °F 26% 30.21 in 10.0 mi Calm Calm - N/A   Clear
9:54 AM 57.9 °F - 24.1 °F 27% 30.17 in 10.0 mi SSW 8.1 mph - N/A   Clear
10:54 AM 59.0 °F - 23.0 °F 25% 30.18 in 10.0 mi SE 4.6 mph - N/A   Clear
11:54 AM 61.0 °F - 23.0 °F 23% 30.17 in 10.0 mi SSW 5.8 mph - N/A   Clear
12:54 PM 63.0 °F - 21.9 °F 21% 30.14 in 10.0 mi WSW 5.8 mph - N/A   Clear
1:54 PM 63.0 °F - 21.0 °F 20% 30.14 in 10.0 mi Variable 5.8 mph - N/A   Clear
2:54 PM 62.1 °F - 21.9 °F 21% 30.14 in 10.0 mi Calm Calm - N/A   Clear
3:54 PM 62.1 °F - 21.9 °F 21% 30.15 in 10.0 mi SSW 4.6 mph - N/A   Clear
4:54 PM 60.1 °F - 21.0 °F 22% 30.17 in 10.0 mi Variable 6.9 mph - N/A   Clear
5:54 PM 45.0 °F - 18.0 °F 34% 30.25 in 10.0 mi Calm Calm - N/A   Clear
6:54 PM 37.9 °F - 16.0 °F 41% 30.29 in 10.0 mi Calm Calm - N/A   Clear
7:54 PM 35.1 °F 30.1 °F 17.1 °F 48% 30.30 in 10.0 mi NE 5.8 mph - N/A   Clear
8:54 PM 33.1 °F - 16.0 °F 50% 30.22 in 10.0 mi Calm Calm - N/A   Clear
9:54 PM 30.0 °F - 15.1 °F 54% 30.21 in 10.0 mi Calm Calm - N/A   Clear
10:54 PM 28.9 °F - 14.0 °F 54% 30.22 in 10.0 mi Calm Calm - N/A   Clear
11:54 PM 27.0 °F - 12.9 °F 56% 30.23 in 10.0 mi Calm Calm - N/A   Clear